Powrót do katalogu

CZ-6A DEB

AktywnyPO
NORAD 64638·DEBRIS·🇨🇳 China

Wystrzelony Aug 6, 2024 z Taiyuan Satellite Launch Center

Loading…

Następne Przeloty (najbliższe 24 godziny)

TLE

ŚwieżeSource: Space-Track

Epoka: Sep 13, 2026, 10:05 UTC

1 64638U 24140AEC 26256.42053892  .00004547  00000-0  12158-2 0  9991
2 64638  88.8592 248.7497 0050042  58.1530 302.4532 14.47433188104684

Śledź CZ-6A DEB w czasie rzeczywistym z AllMySat

Download on the App Store